Find Starlink 11414

NORAD ID: 61948 Int'l Des: 2024-209 Owner: SPXS Country: US Constellation: starlink operational
又名: STARLINK-11414 [DTC] celestrak
LEOCIRCULAR

当前视图

正在加载3D地球...

About Starlink 11414

Starlink 11414 (NORAD 61948) is a starlink constellation satellite (v2 mini d2c) launched Nov 14, 2024 by SPXS of US. It operates in LEO, CIRCULAR orbit with a mass of 960.00 kg.

即将过境

Passes for default location (London). Set your location on the main map for personalized predictions.

高度历史

Loading altitude history...

两行轨道根数

1 61948U 24209K 26237.49905211 .00137183 00000-0 11172-2 0 9993
2 61948 53.1560 258.9206 0001245 89.1193 270.9967 15.69739476103231
Epoch: Aug 25, 2026 • Age: 9 hours

当前状态

高度 366.4 km
远地点 / 近地点 N/A
速度 7.69 km/s
星下点 -23.17°S, 174.08°E
发射日期 Nov 14, 2024
运行时间 1.7 years
类型 internet

技术详情

分类 Payload
质量 960.00 kg
干质量 910.00 kg
总质量 960.00 kg
长度 0.30 m
直径 4.10 m
跨度 29.00 m
形状 Box + pan
制造商 SPXS
平台类型 Starlink V2MD
阶段状态 In Orbit
所有者/国家 SPXS/US

Most Searched